Weather History for Meknes, Morocco

Change the Weather History Date:

Monday, March 18, 2013

  Actual Average Record
Temperature  
Mean Temperature 59 °F -  
Max Temperature 66 °F - - ()
Min Temperature 52 °F - - ()
Degree Days  
Heating Degree Days 6    
Growing Degree Days 9 (Base 50)    
Moisture  
Dew Point 53 °F    
Average Humidity 82    
Maximum Humidity 100    
Minimum Humidity 62    
Precipitation  
Precipitation 0.00 in - - ()
Sea Level Pressure  
Sea Level Pressure 29.85 in    
Wind  
Wind Speed 5 mph ()    
Max Wind Speed 10 mph    
Max Gust Speed -    
Visibility 4.3 miles    
Events Fog    
T = Trace of Precipitation, MM = Missing Value Source: Averaged Metar Reports

Daily Weather History Graph

Daily Weather History Graph

Search for Another Location

Airport:

Trip Planner

Search our weather history database for the weather conditions in past years. The results will help you decide how hot, cold, wet, or windy it might be!

Date:

Astronomy

Mar. 18, 2013 Rise Set
Actual Time 6:28 AM WET 6:32 PM WET
Civil Twilight 6:03 AM WET 6:57 PM WET
Nautical Twilight 5:34 AM WET 7:26 PM WET
Astronomical Twilight 5:05 AM WET 7:55 PM WET
Moon 10:32 AM WET (3/18) 12:04 AM WET (3/18)
Length of Visible Light 12h 53m
Length of Day
12h 03m
Waxing Crescent, 39% of the Moon is Illuminated
Mar 18
Waxing Crescent
Mar 19
First Quarter
Mar 27
Full
Apr 3
Last Quarter
Apr 10
New

Hourly Weather History & Observations

Time (WET) Temp. Dew Point Humidity Pressure Visibility Wind Dir Wind Speed Gust Speed Precip Events Conditions
12:00 AM 55 °F 50 °F 78% 29.83 in 4 mi SW 6.9 mph - -   Partly Cloudy
12:00 AM 55.4 °F 50.0 °F 82% 29.83 in 3.7 mi SW 6.9 mph - N/A   Partly Cloudy
1:00 AM 55.4 °F 50.0 °F 82% 29.83 in 3.7 mi SW 10.4 mph - N/A   Scattered Clouds
2:00 AM 55.4 °F 50.0 °F 82% 29.83 in 3.7 mi SW 9.2 mph - N/A   Scattered Clouds
3:00 AM 54 °F 49 °F 78% 29.83 in 4 mi SW 5.8 mph - -   Partly Cloudy
3:00 AM 53.6 °F 50.0 °F 88% 29.83 in 3.7 mi SW 5.8 mph - N/A   Scattered Clouds
4:00 AM 55.4 °F 50.0 °F 82% 29.83 in 4.3 mi SW 5.8 mph - N/A   Mostly Cloudy
5:00 AM 55.4 °F 50.0 °F 82% 29.83 in 4.3 mi SW 5.8 mph - N/A   Mostly Cloudy
6:00 AM 55 °F 51 °F 80% 29.85 in 4 mi SW 5.8 mph - -   Mostly Cloudy
6:00 AM 55.4 °F 50.0 °F 82% 29.86 in 3.7 mi SW 5.8 mph - N/A   Mostly Cloudy
7:00 AM 55.4 °F 51.8 °F 88% 29.86 in 3.1 mi West 3.5 mph - N/A   Mostly Cloudy
8:00 AM 55.4 °F 53.6 °F 94% 29.89 in 3.1 mi WNW 2.3 mph - N/A   Mostly Cloudy
9:00 AM 57 °F 53 °F 83% 29.89 in 3 mi West 4.6 mph - -   Mostly Cloudy
9:00 AM 57.2 °F 55.4 °F 94% 29.92 in 3.1 mi West 4.6 mph - N/A   Mostly Cloudy
10:00 AM 59.0 °F 59.0 °F 100% 29.92 in 0.5 mi West 6.9 mph - N/A Fog Fog
11:00 AM 57.2 °F 57.2 °F 100% 29.92 in 0.5 mi NW 4.6 mph - N/A Fog Fog
11:20 AM 59.0 °F 55.4 °F 88% - 3.1 mi WNW 2.3 mph - N/A   Mostly Cloudy
12:00 PM 60 °F 54 °F 76% 29.87 in 3 mi West 4.6 mph - -  
12:00 PM 60.8 °F 55.4 °F 82% 29.89 in 3.1 mi West 4.6 mph - N/A   Scattered Clouds
1:00 PM 64.4 °F 55.4 °F 73% 29.89 in 3.1 mi WNW 4.6 mph - N/A   Scattered Clouds
2:00 PM 64.4 °F 57.2 °F 77% 29.86 in 5.0 mi WNW 5.8 mph - N/A   Mostly Cloudy
3:00 PM 66 °F 56 °F 62% 29.79 in 6 mi NW 2.3 mph - -   Mostly Cloudy
3:00 PM 66.2 °F 55.4 °F 68% 29.83 in 6.2 mi NW 2.3 mph - N/A   Scattered Clouds
4:00 PM 64.4 °F 55.4 °F 73% 29.83 in 6.2 mi NNW 4.6 mph - N/A   Scattered Clouds
5:00 PM 64.4 °F 55.4 °F 73% 29.83 in 6.2 mi NNW 4.6 mph - N/A   Mostly Cloudy
6:00 PM 64 °F 56 °F 67% 29.79 in 6 mi NW 4.6 mph - -   Mostly Cloudy
6:00 PM 64.4 °F 55.4 °F 73% 29.83 in 6.2 mi NW 4.6 mph - N/A   Mostly Cloudy
8:00 PM 59.0 °F 55.4 °F 88% 29.86 in 6.2 mi Calm Calm - N/A   Mostly Cloudy
9:00 PM 58 °F 54 °F 81% 29.84 in 6 mi Calm Calm - -   Mostly Cloudy
9:00 PM 57.2 °F 53.6 °F 88% 29.86 in 6.2 mi Calm Calm - N/A   Mostly Cloudy
10:00 PM 57.2 °F 53.6 °F 88% 29.86 in 6.2 mi West 4.6 mph - N/A   Mostly Cloudy
11:00 PM 57.2 °F 53.6 °F 88% 29.86 in 6.2 mi Calm Calm - N/A   Mostly Cloudy